EW5945 Weather Reports


Display with metric or nautical units.
time (UTC)temp
F
wind
direction
speed
MPH
gust
MPH
rain 1hr
in
rain 24hr
in
rain mn
in
humidity
%
barometer
mb
20260831023852 74 319 0.0 0.0 0.00 0.00 2.15 100 1020.7
20260831023339 74 319 0.0 0.0 0.00 0.00 2.15 100 1020.7
20260831022839 74 318 0.0 0.0 0.00 0.00 2.15 100 1020.7
20260831022338 74 321 0.0 0.0 0.00 0.00 2.15 100 1020.7
20260831021839 74 319 0.0 0.0 0.00 0.00 2.15 100 1020.7
20260831021338 74 318 0.0 0.0 0.00 0.00 2.15 100 1020.7
20260831020838 74 326 0.0 0.0 0.00 0.00 2.15 100 1020.3
20260831020339 74 326 0.0 0.0 0.00 0.00 2.15 100 1020.3
20260831015839 74 345 0.0 0.0 0.00 0.00 2.15 100 1020.7
20260831015338 74 350 0.0 0.0 0.00 0.00 2.15 100 1020.3
20260831014838 74 334 0.0 0.0 0.00 0.00 2.15 100 1020.3
20260831014338 74 346 0.0 0.0 0.00 0.00 2.15 100 1020.7
20260831013839 74 350 0.0 0.0 0.00 0.00 2.15 100 1020.7
20260831013338 74 346 0.0 0.0 0.00 0.00 2.15 100 1020.7
20260831012838 74 7 0.0 0.0 0.00 0.00 2.15 100 1020.7
20260831012338 75 353 0.0 0.0 0.00 0.00 2.15 100 1020.7
20260831011838 75 353 0.0 0.0 0.00 0.00 2.15 100 1020.7
20260831011338 75 14 0.0 2.0 0.00 0.00 2.15 100 1020.7
20260831010838 75 316 0.0 0.0 0.00 0.00 2.15 100 1020.7
20260831010339 75 314 0.0 0.0 0.00 0.00 2.15 100 1020.3
20260831005838 75 334 0.0 0.0 0.00 0.00 2.15 100 1020.3
20260831005338 75 355 0.0 0.0 0.00 0.00 2.15 100 1020.3
20260831004838 75 18 2.0 3.0 0.00 0.00 2.15 100 1020.3
20260831004338 75 349 0.0 0.0 0.00 0.00 2.15 100 1020.0
20260831003438 75 343 0.0 0.0 0.00 0.00 2.15 100 1020.0
20260831002839 75 333 0.0 0.0 0.00 0.00 2.15 100 1020.0
20260831002340 75 290 0.0 0.0 0.01 0.00 2.15 100 1019.6
20260831001839 75 288 0.0 0.0 0.01 0.00 2.15 100 1019.6
20260831001338 75 299 0.0 0.0 0.01 0.00 2.15 100 1019.6
20260831000839 75 331 0.0 0.0 0.01 0.00 2.15 100 1019.6
20260831000340 75 334 0.0 0.0 0.01 0.00 2.15 100 1019.3
20260830235838 75 336 0.0 0.0 0.01 0.00 2.15 100 1019.3
20260830235339 75 333 0.0 0.0 0.01 0.00 2.15 100 1019.6
20260830234839 75 345 0.0 0.0 0.01 0.00 2.15 100 1019.6
20260830234339 75 346 0.0 0.0 0.01 0.00 2.15 100 1019.6
20260830233409 75 344 0.0 0.0 0.01 0.00 2.15 100 1020.0
20260830232840 75 343 0.0 0.0 0.01 0.00 2.15 100 1020.0
20260830232339 75 322 0.0 0.0 0.00 0.00 2.15 100 1020.0
20260830231838 76 350 0.0 0.0 0.00 0.00 2.15 100 1020.0
20260830231339 76 21 0.0 0.0 0.00 0.00 2.15 100 1020.0
20260830230840 76 16 0.0 0.0 0.00 0.00 2.15 100 1020.0
20260830230338 76 1 0.0 0.0 0.00 0.00 2.15 100 1020.0
20260830225840 76 331 0.0 2.0 0.00 0.00 2.14 100 1020.3
20260830225338 76 356 3.0 3.0 0.00 0.00 2.14 100 1020.3
20260830224838 76 16 0.0 2.0 0.00 0.00 2.14 100 1020.3
20260830224338 77 352 0.0 5.0 0.00 0.00 2.14 100 1020.7
20260830223840 77 19 2.0 3.0 0.00 0.00 2.14 100 1020.7
20260830223339 77 28 0.0 2.0 0.00 0.00 2.14 100 1020.7
20260830222838 77 29 3.0 5.0 0.00 0.00 2.14 100 1020.7
20260830222338 77 45 3.0 3.0 0.00 0.00 2.14 100 1020.7
20260830221841 77 13 0.0 0.0 0.00 0.00 2.14 100 1020.7
20260830221338 77 331 0.0 0.0 0.02 0.00 2.14 100 1020.7
20260830220839 77 329 2.0 2.0 0.03 0.00 2.14 100 1020.7
20260830220339 77 104 0.0 0.0 0.09 0.00 2.14 100 1020.7
20260830215838 77 345 2.0 2.0 0.16 0.00 2.14 100 1020.7
20260830215338 77 334 0.0 0.0 0.25 0.00 2.14 100 1020.7
20260830214839 77 322 2.0 2.0 0.33 0.00 2.14 100 1020.7
20260830214338 77 317 2.0 2.0 0.46 0.00 2.14 100 1020.7
20260830213838 77 321 2.0 2.0 0.58 0.00 2.14 100 1020.7
20260830213338 77 299 0.0 0.0 0.69 0.00 2.14 100 1020.7
20260830212841 77 15 0.0 0.0 0.90 0.00 2.14 100 1021.0
20260830212338 77 353 0.0 0.0 1.08 0.00 2.14 100 1021.0
20260830211839 76 354 0.0 0.0 1.25 0.00 2.14 100 1020.7
20260830211339 76 253 0.0 2.0 1.39 0.00 2.14 100 1020.7
20260830210838 76 318 2.0 2.0 1.49 0.00 2.14 100 1021.0
20260830210340 76 346 0.0 0.0 1.54 0.00 2.14 99 1021.0
20260830205839 76 348 0.0 0.0 1.57 0.00 2.14 99 1020.7
20260830205338 76 320 0.0 0.0 1.55 0.00 2.14 99 1020.7
20260830204839 76 304 0.0 0.0 1.53 0.00 2.14 99 1020.7
20260830204339 76 18 0.0 0.0 1.48 0.00 2.14 99 1021.0
20260830203841 76 322 2.0 2.0 1.39 0.00 2.13 98 1021.0
20260830203338 76 11 0.0 2.0 1.24 0.00 2.13 98 1021.0
20260830202839 76 338 0.0 0.0 1.07 0.00 2.12 98 1021.0
20260830202338 76 24 2.0 3.0 0.89 0.00 2.11 98 1021.0
20260830201838 76 310 2.0 3.0 0.72 0.00 2.01 97 1021.0
20260830201341 76 46 2.0 2.0 0.56 0.00 1.79 96 1021.3
20260830200840 77 84 2.0 3.0 0.44 0.00 1.47 96 1021.3
20260830200338 77 283 2.0 2.0 0.32 0.00 1.15 95 1021.3
20260830195838 78 329 5.0 14.0 0.23 0.00 0.98 93 1021.0
20260830195340 79 57 2.0 2.0 0.15 0.00 0.97 92 1020.7
20260830194838 80 1 2.0 5.0 0.08 0.00 0.78 90 1020.7
20260830194338 81 20 8.0 12.0 0.03 0.00 0.53 85 1020.7
20260830193839 84 199 2.0 3.0 0.00 0.00 0.07 83 1020.7
20260830193338 85 257 0.0 2.0 0.00 0.00 0.00 82 1020.3
20260830192838 86 214 0.0 2.0 0.00 0.00 0.00 80 1020.3
20260830192338 86 258 5.0 5.0 0.00 0.00 0.00 78 1020.3
20260830191838 87 259 2.0 2.0 0.00 0.00 0.00 77 1020.3
20260830191338 87 352 2.0 2.0 0.00 0.00 0.00 76 1020.3
20260830190838 87 288 0.0 2.0 0.00 0.00 0.00 75 1020.3
20260830190338 87 333 2.0 2.0 0.00 0.00 0.00 77 1020.3
20260830185838 87 333 0.0 0.0 0.00 0.00 0.00 75 1020.3
20260830185343 87 330 2.0 2.0 0.00 0.00 0.00 76 1020.3
20260830184838 87 354 0.0 2.0 0.00 0.00 0.00 76 1020.3
20260830184339 88 292 0.0 2.0 0.00 0.00 0.00 75 1020.3
20260830183838 87 350 2.0 2.0 0.00 0.00 0.00 75 1020.3
20260830183338 87 335 0.0 2.0 0.00 0.00 0.00 78 1020.3
20260830182839 87 317 3.0 3.0 0.00 0.00 0.00 73 1020.3
20260830182338 88 239 2.0 3.0 0.00 0.00 0.00 71 1020.7
20260830181838 88 297 0.0 0.0 0.00 0.00 0.00 70 1020.7
20260830181338 88 274 2.0 2.0 0.00 0.00 0.00 74 1020.7
20260830180838 87 353 3.0 3.0 0.00 0.00 0.00 73 1020.7
20260830180338 87 56 0.0 0.0 0.00 0.00 0.00 75 1020.7
20260830175839 86 351 2.0 2.0 0.00 0.00 0.00 75 1020.7
20260830175339 86 339 0.0 0.0 0.00 0.00 0.00 73 1020.7
20260830174838 87 346 3.0 3.0 0.00 0.00 0.00 76 1020.7
20260830174338 88 333 2.0 3.0 0.00 0.00 0.00 72 1020.7
20260830173838 89 19 5.0 5.0 0.00 0.00 0.00 70 1021.0
20260830173339 89 351 3.0 3.0 0.00 0.00 0.00 75 1021.0
20260830172838 88 288 0.0 2.0 0.00 0.00 0.00 73 1021.0
20260830172338 87 288 2.0 2.0 0.00 0.00 0.00 73 1021.0
20260830171838 88 252 3.0 5.0 0.00 0.00 0.00 71 1021.0
20260830171339 88 31 3.0 5.0 0.00 0.00 0.00 75 1021.3
20260830170838 87 44 3.0 3.0 0.00 0.00 0.00 72 1021.3
20260830170338 87 340 3.0 3.0 0.00 0.00 0.00 73 1021.3
20260830165839 87 280 3.0 3.0 0.00 0.00 0.00 79 1021.3
20260830165339 86 22 6.0 7.0 0.00 0.00 0.00 75 1021.3
20260830164838 87 342 2.0 3.0 0.00 0.00 0.00 76 1021.3
20260830164339 87 1 2.0 2.0 0.00 0.00 0.00 74 1021.7
20260830163838 86 295 2.0 3.0 0.00 0.00 0.00 78 1021.7
20260830163338 86 5 2.0 2.0 0.00 0.00 0.00 76 1021.7
20260830162838 86 333 2.0 3.0 0.00 0.00 0.00 78 1022.0
20260830162338 85 280 0.0 0.0 0.00 0.00 0.00 80 1022.0
20260830161838 85 293 0.0 0.0 0.00 0.00 0.00 79 1022.0
20260830161339 84 258 2.0 2.0 0.00 0.00 0.00 80 1022.0
20260830160840 85 263 2.0 2.0 0.00 0.00 0.00 79 1022.0
20260830160339 85 348 0.0 0.0 0.00 0.00 0.00 80 1022.0
20260830155838 85 85 2.0 2.0 0.00 0.00 0.00 80 1022.0
20260830155338 85 257 2.0 3.0 0.00 0.00 0.00 80 1022.0
20260830154839 85 95 2.0 2.0 0.00 0.00 0.00 81 1022.0
20260830154338 85 39 2.0 3.0 0.00 0.00 0.00 80 1022.0
20260830153838 85 113 3.0 3.0 0.00 0.00 0.00 80 1022.4
20260830153338 85 15 3.0 7.0 0.00 0.00 0.00 81 1022.4
20260830152838 85 114 3.0 3.0 0.00 0.00 0.00 82 1022.4
20260830152338 84 336 3.0 5.0 0.00 0.00 0.00 81 1022.0
20260830151838 84 27 5.0 5.0 0.00 0.00 0.00 83 1022.4
20260830151339 84 33 3.0 5.0 0.00 0.00 0.00 82 1022.4
20260830150839 83 104 3.0 3.0 0.00 0.00 0.00 85 1022.4
20260830150338 83 51 2.0 2.0 0.00 0.00 0.00 82 1022.7
20260830145838 82 320 0.0 0.0 0.00 0.00 0.00 84 1022.4
20260830145338 82 104 2.0 3.0 0.00 0.00 0.00 85 1022.7
20260830144838 83 359 3.0 3.0 0.00 0.00 0.00 87 1022.7
20260830144338 83 71 0.0 0.0 0.00 0.00 0.00 89 1022.7
20260830143838 82 293 0.0 0.0 0.00 0.00 0.00 89 1022.7
20260830143339 82 158 2.0 2.0 0.00 0.00 0.00 90 1022.7
20260830142838 82 50 2.0 2.0 0.00 0.00 0.00 91 1022.4
20260830142338 81 330 2.0 2.0 0.00 0.00 0.00 92 1022.4
20260830141838 81 146 2.0 2.0 0.00 0.00 0.00 93 1022.4
20260830141338 80 147 2.0 2.0 0.00 0.00 0.00 93 1022.7
20260830140838 80 16 6.0 7.0 0.00 0.00 0.00 93 1022.4
20260830140338 80 9 2.0 2.0 0.00 0.00 0.00 95 1022.7
20260830135838 79 42 3.0 3.0 0.00 0.00 0.00 96 1022.4
20260830135339 79 6 2.0 5.0 0.00 0.00 0.00 96 1022.4
20260830134838 78 19 8.0 9.0 0.00 0.00 0.00 97 1022.4
20260830134338 78 28 5.0 7.0 0.00 0.00 0.00 98 1022.4
20260830133839 77 38 10.0 10.0 0.00 0.00 0.00 99 1022.4
20260830133338 77 37 2.0 7.0 0.00 0.00 0.00 99 1022.4
20260830132838 77 9 5.0 5.0 0.00 0.00 0.00 100 1022.4
20260830132338 76 45 3.0 3.0 0.00 0.00 0.00 100 1022.4
20260830131838 76 45 3.0 7.0 0.00 0.00 0.00 100 1022.7
20260830131338 75 37 5.0 7.0 0.00 0.00 0.00 100 1022.4
20260830130838 75 34 5.0 7.0 0.00 0.00 0.00 100 1022.4
20260830130338 75 25 6.0 9.0 0.00 0.00 0.00 100 1022.4
20260830125838 75 10 3.0 5.0 0.00 0.00 0.00 100 1022.4
20260830125339 74 19 5.0 5.0 0.00 0.00 0.00 100 1022.4
20260830124838 74 78 2.0 5.0 0.00 0.00 0.00 100 1022.4
20260830124338 74 358 3.0 7.0 0.00 0.00 0.00 100 1022.4
20260830123839 74 2 2.0 5.0 0.00 0.00 0.00 100 1022.4
20260830123338 73 48 6.0 7.0 0.00 0.00 0.00 100 1022.7
20260830122838 73 14 6.0 7.0 0.00 0.00 0.00 100 1022.4
20260830122338 73 26 6.0 7.0 0.00 0.00 0.00 100 1022.7
20260830121838 73 355 0.0 3.0 0.00 0.00 0.00 100 1022.4
20260830121339 74 25 3.0 3.0 0.00 0.00 0.00 100 1022.4
20260830120838 73 21 0.0 0.0 0.00 0.00 0.00 100 1022.4
20260830120338 73 13 2.0 3.0 0.00 0.00 0.00 100 1022.4
20260830115839 73 358 3.0 7.0 0.00 0.00 0.00 100 1022.4
20260830115338 73 29 3.0 7.0 0.00 0.00 0.00 100 1022.4
20260830114838 73 353 0.0 2.0 0.00 0.00 0.00 100 1022.4
20260830114338 73 6 0.0 0.0 0.00 0.00 0.00 100 1022.4
20260830113838 73 17 0.0 2.0 0.00 0.00 0.00 100 1022.4
20260830113339 72 357 2.0 3.0 0.00 0.00 0.00 100 1022.4
20260830112839 72 338 0.0 0.0 0.00 0.00 0.00 100 1022.4
20260830112340 72 2 0.0 0.0 0.00 0.00 0.00 100 1022.4
20260830111839 72 336 0.0 0.0 0.00 0.00 0.00 100 1022.4
20260830111338 72 320 0.0 0.0 0.00 0.00 0.00 100 1022.4
20260830110839 72 3 0.0 0.0 0.00 0.00 0.00 100 1022.4
20260830110338 72 5 0.0 0.0 0.00 0.00 0.00 100 1022.4
20260830105839 72 6 0.0 0.0 0.00 0.00 0.00 100 1022.4
20260830105339 71 10 0.0 0.0 0.00 0.00 0.00 100 1022.4
20260830104839 72 10 0.0 0.0 0.00 0.00 0.00 100 1022.4
20260830104338 71 357 0.0 0.0 0.00 0.00 0.00 100 1022.0
20260830103838 72 8 2.0 2.0 0.00 0.00 0.00 100 1022.0
20260830103338 72 21 2.0 2.0 0.00 0.00 0.00 100 1022.0
20260830102838 72 357 0.0 0.0 0.00 0.00 0.00 100 1022.0
20260830102338 72 341 0.0 0.0 0.00 0.00 0.00 100 1022.0
20260830101838 72 357 0.0 0.0 0.00 0.00 0.00 100 1022.0
20260830101338 72 355 0.0 0.0 0.00 0.00 0.00 100 1022.0
20260830100839 72 344 0.0 0.0 0.00 0.00 0.00 100 1022.0
20260830100338 72 345 2.0 2.0 0.00 0.00 0.00 100 1022.0
20260830095839 72 351 0.0 0.0 0.00 0.00 0.00 100 1022.0
20260830095338 72 358 0.0 0.0 0.00 0.00 0.00 100 1022.0
20260830094839 72 18 0.0 2.0 0.00 0.00 0.00 100 1022.0
20260830094338 72 360 0.0 0.0 0.00 0.00 0.00 100 1022.0
20260830093838 72 34 0.0 2.0 0.00 0.00 0.00 100 1022.0
20260830093338 72 353 0.0 0.0 0.00 0.00 0.00 100 1022.0
20260830092839 72 13 0.0 0.0 0.00 0.00 0.00 100 1022.0
20260830092338 72 351 0.0 0.0 0.00 0.00 0.00 100 1022.0
20260830091838 72 6 2.0 2.0 0.00 0.00 0.00 100 1021.7
20260830091338 72 24 3.0 3.0 0.00 0.00 0.00 100 1021.7
20260830090838 72 353 0.0 0.0 0.00 0.00 0.00 100 1021.7
20260830090338 72 347 2.0 2.0 0.00 0.00 0.00 100 1021.7
20260830085838 72 21 0.0 2.0 0.00 0.00 0.00 100 1021.7
20260830085338 72 57 3.0 3.0 0.00 0.00 0.00 100 1021.3
20260830084838 72 46 3.0 3.0 0.00 0.00 0.00 100 1021.7
20260830084338 72 11 0.0 2.0 0.00 0.00 0.00 100 1021.7
20260830083839 72 14 3.0 3.0 0.00 0.00 0.00 100 1021.7
20260830083339 72 24 3.0 3.0 0.00 0.00 0.00 100 1021.3
20260830082838 72 9 2.0 2.0 0.00 0.00 0.00 100 1021.3
20260830082339 72 20 2.0 2.0 0.00 0.00 0.00 100 1021.3
20260830081838 72 26 2.0 2.0 0.00 0.00 0.00 100 1021.3
20260830081338 72 352 0.0 0.0 0.00 0.00 0.00 100 1021.3
20260830080839 72 7 0.0 0.0 0.00 0.00 0.00 100 1021.3
20260830080340 72 5 0.0 0.0 0.00 0.00 0.00 100 1021.3
20260830075838 72 5 0.0 0.0 0.00 0.00 0.00 100 1021.3
20260830075339 72 13 0.0 2.0 0.00 0.00 0.00 100 1021.3
20260830074839 72 356 0.0 0.0 0.00 0.00 0.00 100 1021.3
20260830074340 72 356 0.0 0.0 0.00 0.00 0.00 100 1021.7
20260830073839 72 139 0.0 5.0 0.00 0.00 0.00 100 1021.7
20260830073338 72 20 2.0 2.0 0.00 0.00 0.00 100 1021.7
20260830072838 72 354 0.0 2.0 0.00 0.00 0.00 100 1021.3
20260830072340 72 15 2.0 2.0 0.00 0.00 0.00 100 1021.3
20260830071840 72 4 0.0 2.0 0.00 0.00 0.00 100 1021.3
20260830071338 72 10 0.0 0.0 0.00 0.00 0.00 100 1021.3
20260830070839 72 347 2.0 2.0 0.00 0.00 0.00 100 1021.7
20260830070338 72 6 0.0 2.0 0.00 0.00 0.00 100 1021.7
20260830065838 72 10 0.0 0.0 0.00 0.00 0.00 100 1022.0
20260830065338 72 11 0.0 0.0 0.00 0.00 0.00 100 1022.0
20260830064838 72 358 0.0 0.0 0.00 0.00 0.00 100 1022.0
20260830064339 72 338 0.0 0.0 0.00 0.00 0.00 100 1022.0
20260830063838 72 352 0.0 0.0 0.00 0.00 0.00 100 1022.0
20260830063338 73 335 0.0 0.0 0.00 0.00 0.00 100 1022.0
20260830062839 73 333 0.0 0.0 0.00 0.00 0.00 100 1022.0
20260830062338 73 343 0.0 0.0 0.00 0.00 0.00 100 1022.0
20260830061838 73 343 0.0 0.0 0.00 0.00 0.00 100 1022.0
20260830061338 73 346 0.0 0.0 0.00 0.00 0.00 100 1022.0
20260830060839 73 346 0.0 0.0 0.00 0.00 0.00 100 1022.4
20260830060338 73 357 0.0 0.0 0.00 0.00 0.00 100 1022.4
20260830055839 73 350 0.0 0.0 0.00 0.00 0.00 100 1022.4
20260830055338 73 341 0.0 0.0 0.00 0.00 0.00 100 1022.7
20260830054838 73 340 0.0 0.0 0.00 0.00 0.00 100 1022.4
20260830054338 73 332 0.0 0.0 0.00 0.00 0.00 100 1022.7
20260830053839 73 329 0.0 0.0 0.00 0.00 0.00 100 1022.7
20260830053338 73 329 0.0 0.0 0.00 0.00 0.00 100 1022.7
20260830052839 73 324 0.0 0.0 0.00 0.00 0.00 100 1022.4
20260830052338 73 324 0.0 0.0 0.00 0.00 0.00 100 1022.7
20260830051838 73 360 0.0 0.0 0.00 0.00 0.00 100 1022.4
20260830051338 73 340 0.0 0.0 0.00 0.00 0.00 100 1022.4
20260830050838 73 359 0.0 0.0 0.00 0.00 0.00 100 1022.7
20260830050338 73 359 0.0 0.0 0.00 0.00 0.00 100 1022.7
20260830045838 73 7 0.0 0.0 0.00 0.00 0.00 100 1022.7
20260830045338 73 337 0.0 0.0 0.00 0.00 0.00 100 1022.7
20260830044840 73 335 0.0 0.0 0.00 0.00 0.00 100 1022.7
20260830044338 73 338 0.0 0.0 0.00 0.00 0.00 100 1022.7
20260830043839 73 349 0.0 0.0 0.00 0.00 0.00 100 1022.7
20260830043338 73 6 0.0 0.0 0.00 0.00 0.00 100 1022.7
20260830042839 73 335 0.0 0.0 0.00 0.00 0.00 100 1022.4
20260830042338 73 356 0.0 0.0 0.00 0.00 0.00 100 1022.7
20260830041838 73 359 0.0 0.0 0.00 0.00 0.00 100 1022.7
20260830041338 73 323 0.0 0.0 0.00 0.00 0.00 100 1022.7
20260830040838 73 336 0.0 0.0 0.00 0.00 0.00 100 1022.7
20260830040338 73 16 0.0 0.0 0.00 0.00 0.00 100 1022.7
20260830035838 73 322 0.0 0.0 0.00 0.00 0.13 100 1022.7
20260830035339 73 296 0.0 0.0 0.00 0.00 0.13 100 1022.7
20260830034838 73 297 0.0 0.0 0.00 0.00 0.13 100 1022.7
20260830034338 73 297 0.0 0.0 0.00 0.00 0.13 100 1022.7
20260830033838 73 312 0.0 0.0 0.00 0.00 0.13 100 1022.7
20260830033338 73 314 0.0 0.0 0.00 0.00 0.13 100 1022.7
20260830032838 73 335 0.0 0.0 0.00 0.00 0.13 100 1022.7
20260830032338 74 336 0.0 0.0 0.00 0.00 0.13 100 1022.7
20260830031838 74 343 0.0 0.0 0.00 0.00 0.13 100 1022.7
20260830031339 74 328 0.0 0.0 0.00 0.00 0.13 100 1022.7
20260830030838 74 325 0.0 0.0 0.00 0.00 0.13 100 1022.7
20260830030338 74 326 0.0 0.0 0.00 0.00 0.13 100 1022.7
20260830025839 74 325 0.0 0.0 0.00 0.00 0.13 100 1022.7
20260830025338 74 346 0.0 0.0 0.00 0.00 0.13 100 1022.4
20260830024839 74 357 0.0 0.0 0.00 0.00 0.13 100 1022.4